Location: Caltech
(34.1382°N, 118.1253°W)
Time: 06:38:40
(UTC-07:00)

Cosmos 2333 Rocket - Visible Passes

Search period start: 26 August 2016 00:00
Search period end: 05 September 2016 00:00
Orbit: 837 x 865 km, 70.8° (Epoch: 25 August)

Date Brightness Start Highest point End Pass type
(mag) Time Alt. Az. Time Alt. Az. Time Alt. Az.
26 Aug 4.9 01:15:46 14° NNE 01:15:46 14° NNE 01:16:31 10° NNE visible
27 Aug 5.0 01:03:46 13° NNE 01:03:46 13° NNE 01:04:16 10° NNE visible
28 Aug 5.0 00:51:43 11° NNE 00:51:43 11° NNE 00:52:01 10° NNE visible
29 Aug 5.1 00:39:40 11° NNE 00:39:40 11° NNE 00:39:46 10° NNE visible
